[[{"header":{"parameterUnit":"m.s-1","parameterCategory":2,"la1":30.2991,"la2":30.254,"lo1":-89.0895,"lo2":-89.0444,"dy":0.0017,"dx":0.0017,"nx":28,"ny":28,"refTime":"2023-11-15T09:00:00:Z","depth":"0","parameterNumber":2,"parameterNumberName":"U-component_of_CURRENTS"},"data":[0,0,0,0,0,0,0,0,0,0,0,0,0,0,0,0,0,0,0,0,0,0,0,0,0,0,0,0,0,0,0,0,0,0,0,0,0,0,0,0,0,0,0,0,0,0,0,0,0,0,0,0,0,0,0,0,0,0,-0.2434,-0.2434,0,-0.2401,-0.24,-0.24,-0.2367,-0.2367,-0.2367,-0.2367,-0.2328,-0.2327,-0.2326,0,0,0,0,0,0,0,0,0,0,0,0,0,-0.243,-0.243,-0.2434,-0.2434,-0.2434,-0.2401,-0.24,-0.24,-0.2367,-0.2367,-0.2367,-0.2367,-0.2328,-0.2327,-0.2326,0,0,0,0,0,0,0,0,0,0,0,0,0,-0.2415,-0.243,-0.2434,-0.2416,-0.2414,-0.2401,-0.24,-0.2399,-0.2367,-0.2367,-0.2367,-0.2367,-0.2328,-0.2327,-0.2326,-0.2322,0,0,-0.2322,-0.2321,0,0,0,0,0,0,0,0,-0.2416,-0.2415,-0.2419,-0.2417,-0.2415,-0.2391,-0.2385,-0.2374,-0.2367,-0.2382,-0.2367,-0.2367,-0.235,-0.2347,-0.2337,-0.232,-0.2318,-0.2322,-0.2321,-0.232,-0.232,0,0,0,0,0,0,0,-0.2417,-0.2416,-0.2418,-0.2419,-0.2416,-0.2396,-0.2394,-0.2382,-0.2365,-0.2381,-0.2379,-0.238,-0.2349,-0.2339,-0.2336,-0.2318,-0.2322,-0.232,-0.232,-0.2319,-0.229,-0.229,0,0,0,0,0,0,-0.243,-0.2417,-0.2419,-0.2417,-0.2419,-0.2397,-0.2394,-0.2396,-0.2365,-0.2362,-0.2381,-0.2379,-0.2341,-0.2338,-0.2335,-0.2338,-0.232,-0.2319,-0.2318,-0.229,-0.229,-0.229,0,0,0,0,0,0,-0.243,-0.243,-0.242,-0.2419,-0.2416,-0.2398,-0.24,-0.2396,-0.2388,-0.2366,-0.2361,-0.2378,-0.2341,-0.2337,-0.2324,-0.2336,-0.2318,-0.2317,-0.229,-0.229,-0.229,-0.2338,0,0,0,0,0,0,-0.243,-0.243,-0.2432,-0.242,-0.2417,-0.242,-0.24,-0.2395,-0.2391,-0.2388,-0.2363,-0.2358,-0.234,-0.2326,-0.2322,-0.2333,-0.2316,-0.229,-0.229,-0.229,-0.2336,-0.2339,-0.2342,0,0,0,0,0,-0.243,-0.2442,-0.2433,-0.2433,-0.2422,-0.2421,-0.2417,-0.2401,-0.2391,-0.2392,-0.237,-0.2359,-0.2324,-0.2325,-0.2321,-0.2332,-0.229,-0.229,-0.229,-0.2335,-0.2339,-0.2342,0,0,0,0,0,0,-0.2445,-0.244,-0.2429,-0.2439,-0.2432,-0.2417,-0.2417,-0.2406,-0.2388,-0.2386,-0.236,-0.2354,-0.2347,-0.2331,-0.2332,-0.2322,-0.2306,-0.2305,-0.2341,-0.2344,-0.2348,-0.236,-0.2315,0,0,0,0,0,-0.2449,-0.2452,-0.2445,-0.245,-0.2451,-0.2433,-0.2429,-0.2421,-0.2407,-0.2399,-0.2379,-0.2358,-0.2344,-0.2337,-0.2321,-0.2317,-0.2318,-0.232,-0.2323,-0.2326,-0.2332,-0.2335,-0.2339,-0.2291,-0.2291,-0.2291,0,0,-0.2455,-0.2453,-0.2454,-0.2453,-0.2445,-0.2454,-0.243,-0.2433,-0.2437,-0.2398,-0.2393,-0.2369,-0.2344,-0.2338,-0.2334,-0.2327,-0.2344,-0.2326,-0.2329,-0.2334,-0.2335,-0.234,-0.2345,-0.2291,-0.2291,-0.2291,0,0,-0.2477,-0.2469,-0.2482,-0.2481,-0.2479,-0.247,-0.2475,-0.2463,-0.2453,-0.2445,-0.2419,-0.2401,-0.2378,-0.2362,-0.2352,-0.2362,-0.2359,-0.2357,-0.2385,-0.2387,-0.2392,-0.2396,-0.2423,-0.2429,-0.2359,-0.2359,-0.2359,0,-0.2487,-0.25,-0.2486,-0.2502,-0.2505,-0.2483,-0.2501,-0.2491,-0.2474,-0.247,-0.2451,-0.2416,-0.2391,-0.2388,-0.2386,-0.2371,-0.2379,-0.2375,-0.2393,-0.2397,-0.24,-0.2427,-0.2432,-0.2362,-0.2361,-0.2361,-0.2361,0,-0.2518,-0.2529,-0.254,-0.2549,-0.2551,-0.2562,-0.2554,-0.2551,-0.2534,-0.2521,-0.2509,-0.2469,-0.2449,-0.2437,-0.2412,-0.2422,-0.2424,-0.2398,-0.2389,-0.2408,-0.2435,-0.244,-0.2365,-0.2364,-0.2363,-0.2363,0,0,-0.2528,-0.2558,-0.2558,-0.2569,-0.2577,-0.258,-0.2595,-0.2597,-0.2605,-0.2578,-0.2584,-0.2544,-0.2518,-0.2503,-0.2471,-0.2466,-0.2493,-0.2443,-0.2442,-0.248,-0.2522,-0.2606,-0.2619,-0.2472,-0.2473,-0.2473,-0.254,0,-0.2553,-0.2593,-0.26,-0.2629,-0.2645,-0.264,-0.2653,-0.2652,-0.2641,-0.2641,-0.2605,-0.2591,-0.2546,-0.2531,-0.2523,-0.2492,-0.2506,-0.2479,-0.2489,-0.249,-0.2569,-0.2627,-0.273,-0.2805,-0.2545,-0.2546,-0.2547,0,-0.2568,-0.2595,-0.2635,-0.2665,-0.2672,-0.2685,-0.2698,-0.2707,-0.2708,-0.27,-0.2686,-0.2658,-0.264,-0.2597,-0.2581,-0.2567,-0.2555,-0.2536,-0.2538,-0.2603,-0.2583,-0.2738,-0.2824,-0.2843,-0.2555,-0.2554,-0.2553,0,-0.2561,-0.2609,-0.2641,-0.2651,-0.2688,-0.27,-0.271,-0.2719,-0.2729,-0.2732,-0.2745,-0.2719,-0.2709,-0.268,-0.2645,-0.2612,-0.2645,-0.2592,-0.2667,-0.2673,-0.2757,-0.277,-0.2872,-0.2604,-0.2604,-0.2604,-0.2604,0,-0.2572,-0.2589,-0.2638,-0.2652,-0.2677,-0.2702,-0.2725,-0.2732,-0.2757,-0.2789,-0.2767,-0.2794,-0.2727,-0.2735,-0.2689,-0.2718,-0.2686,-0.2699,-0.2703,-0.2779,-0.2793,-0.2807,-0.2797,-0.2606,-0.2606,-0.2605,-0.2605,0,-0.2538,-0.2583,-0.261,-0.2659,-0.2672,-0.2679,-0.2721,-0.275,-0.2774,-0.282,-0.2825,-0.2849,-0.2882,-0.2847,-0.2821,-0.2798,-0.2816,-0.2814,-0.2927,-0.2943,-0.3024,-0.3012,-0.3012,-0.2996,-0.2908,-0.2911,-0.2913,0,-0.252,-0.2536,-0.259,-0.2619,-0.2638,-0.2665,-0.2699,-0.2736,-0.278,-0.2865,-0.29,-0.2953,-0.3029,-0.3053,-0.3044,-0.3045,-0.2945,-0.3095,-0.3046,-0.3079,-0.3066,-0.2942,-0.2917,-0.3178,-0.3182,-0.3186,-0.3188,0,-0.2479,-0.25,-0.2537,-0.2584,-0.2626,-0.2665,-0.272,-0.2765,-0.2843,-0.2933,-0.306,-0.3134,-0.3219,-0.332,-0.3326,-0.3279,-0.3116,-0.3166,-0.3166,-0.3278,-0.3184,-0.3154,-0.3087,-0.3219,-0.3216,-0.3214,-0.3212,-0.3211,-0.2436,-0.2446,-0.2505,-0.2544,-0.2605,-0.2667,-0.269,-0.283,-0.2941,-0.3141,-0.3201,-0.3457,-0.3541,-0.3605,-0.3552,-0.3553,-0.337,-0.3471,-0.3453,-0.332,-0.3316,-0.3338,-0.3489,-0.3487,-0.3486,-0.3485,-0.3484,0,-0.237,-0.241,-0.2462,-0.2526,-0.2574,-0.2599,-0.2709,-0.2762,-0.2944,-0.3291,-0.3478,-0.3897,-0.3982,-0.4008,-0.4024,-0.3894,-0.3717,-0.3744,-0.36,-0.3556,-0.3582,-0.3609,-0.3837,-0.3837,-0.3837,-0.3837,-0.3837,-0.3837,-0.2343,-0.2371,-0.2406,-0.247,-0.251,-0.2522,-0.2563,-0.2704,-0.2945,-0.3417,-0.3885,-0.4232,-0.4173,-0.4432,-0.4299,-0.4111,-0.3926,-0.3816,-0.3697,-0.3759,-0.3731,-0.3703,-0.3726,-0.3975,-0.3975,-0.3645,-0.3644,-0.3643]},{"header":{"parameterUnit":"m.s-1","parameterCategory":2,"la1":30.2991,"la2":30.254,"lo1":-89.0895,"lo2":-89.0444,"dy":0.0017,"dx":0.0017,"nx":28,"ny":28,"refTime":"2023-11-15T09:00:00:Z","depth":"0","parameterNumber":3,"parameterNumberName":"V-component_of_CURRENTS"},"data":[0,0,0,0,0,0,0,0,0,0,0,0,0,0,0,0,0,0,0,0,0,0,0,0,0,0,0,0,0,0,0,0,0,0,0,0,0,0,0,0,0,0,0,0,0,0,0,0,0,0,0,0,0,0,0,0,0,0,-0.0689,-0.0688,0,-0.0619,-0.0618,-0.0617,-0.0576,-0.0576,-0.0576,-0.0576,-0.0501,-0.0499,-0.0497,0,0,0,0,0,0,0,0,0,0,0,0,0,-0.074,-0.074,-0.0689,-0.0688,-0.0687,-0.0619,-0.0618,-0.0617,-0.0576,-0.0576,-0.0576,-0.0576,-0.0501,-0.0499,-0.0497,0,0,0,0,0,0,0,0,0,0,0,0,0,-0.0698,-0.074,-0.0689,-0.066,-0.0656,-0.0619,-0.0618,-0.0617,-0.0576,-0.0576,-0.0576,-0.0576,-0.0502,-0.0499,-0.0497,-0.0481,0,0,-0.0488,-0.0487,0,0,0,0,0,0,0,0,-0.0701,-0.0696,-0.0665,-0.0662,-0.0658,-0.0607,-0.0609,-0.0572,-0.0576,-0.0606,-0.0576,-0.0576,-0.0537,-0.0531,-0.0517,-0.0478,-0.0475,-0.0488,-0.0486,-0.0485,-0.0484,0,0,0,0,0,0,0,-0.0704,-0.0699,-0.066,-0.0664,-0.066,-0.0634,-0.0628,-0.0601,-0.0572,-0.0603,-0.06,-0.0594,-0.0534,-0.052,-0.0515,-0.0474,-0.0488,-0.0485,-0.0483,-0.0482,-0.042,-0.042,0,0,0,0,0,0,-0.0717,-0.0702,-0.0663,-0.0658,-0.068,-0.0633,-0.0627,-0.0623,-0.0572,-0.0565,-0.0594,-0.0592,-0.0525,-0.0518,-0.0512,-0.049,-0.0485,-0.0482,-0.048,-0.042,-0.042,-0.042,0,0,0,0,0,0,-0.0718,-0.0714,-0.0665,-0.0679,-0.0671,-0.0633,-0.0628,-0.0621,-0.0607,-0.0566,-0.0558,-0.0587,-0.0524,-0.0516,-0.0488,-0.0487,-0.0481,-0.0478,-0.042,-0.042,-0.042,-0.0446,0,0,0,0,0,0,-0.072,-0.0715,-0.0717,-0.068,-0.0671,-0.0647,-0.0628,-0.062,-0.0603,-0.06,-0.0557,-0.055,-0.0524,-0.0493,-0.0485,-0.0482,-0.0476,-0.042,-0.042,-0.042,-0.0445,-0.0447,-0.0449,0,0,0,0,0,-0.0722,-0.0727,-0.0718,-0.0713,-0.0675,-0.0647,-0.064,-0.0612,-0.0603,-0.0598,-0.0568,-0.0551,-0.0489,-0.049,-0.0481,-0.0478,-0.042,-0.042,-0.042,-0.0444,-0.0447,-0.0449,0,0,0,0,0,0,-0.075,-0.0722,-0.0712,-0.0708,-0.0682,-0.0641,-0.0635,-0.0615,-0.0587,-0.0586,-0.0548,-0.0538,-0.0514,-0.0494,-0.0497,-0.0462,-0.0453,-0.0452,-0.0474,-0.0476,-0.0478,-0.0482,-0.0473,0,0,0,0,0,-0.0759,-0.0755,-0.0722,-0.0719,-0.0709,-0.0673,-0.0659,-0.0639,-0.0609,-0.0597,-0.0565,-0.0535,-0.0508,-0.0491,-0.0465,-0.0443,-0.0425,-0.0438,-0.0439,-0.0441,-0.0439,-0.0415,-0.0415,-0.0421,-0.0421,-0.0421,0,0,-0.0769,-0.0753,-0.0751,-0.0725,-0.0703,-0.0689,-0.0664,-0.0647,-0.063,-0.0593,-0.0566,-0.054,-0.0504,-0.048,-0.0468,-0.0462,-0.0429,-0.0441,-0.0443,-0.044,-0.0415,-0.0415,-0.0414,-0.0421,-0.0421,-0.0421,0,0,-0.0788,-0.0775,-0.0778,-0.0758,-0.0731,-0.0705,-0.0703,-0.0664,-0.0643,-0.0614,-0.0586,-0.0559,-0.0516,-0.0488,-0.047,-0.0466,-0.0442,-0.0462,-0.0469,-0.0446,-0.0446,-0.0445,-0.0421,-0.0418,-0.0461,-0.0461,-0.0461,0,-0.0803,-0.0801,-0.0774,-0.0769,-0.0756,-0.0716,-0.0712,-0.0683,-0.0638,-0.0619,-0.0612,-0.0546,-0.0519,-0.0483,-0.0482,-0.047,-0.0453,-0.0464,-0.0449,-0.0447,-0.0446,-0.0422,-0.0418,-0.0462,-0.0462,-0.0462,-0.0462,0,-0.0821,-0.0818,-0.0818,-0.0799,-0.0779,-0.0771,-0.0729,-0.0705,-0.0678,-0.0644,-0.0604,-0.0565,-0.0525,-0.0515,-0.0495,-0.0471,-0.0461,-0.0456,-0.0444,-0.0447,-0.0421,-0.0417,-0.0464,-0.0463,-0.0463,-0.0463,0,0,-0.0862,-0.0837,-0.0838,-0.0834,-0.0795,-0.0783,-0.0754,-0.0714,-0.0693,-0.0649,-0.0618,-0.0573,-0.0548,-0.0526,-0.0498,-0.0476,-0.0454,-0.0464,-0.0462,-0.0442,-0.0402,-0.0354,-0.0345,-0.0447,-0.0446,-0.0446,-0.0388,0,-0.0886,-0.0894,-0.0864,-0.0862,-0.0864,-0.0813,-0.0788,-0.0745,-0.0701,-0.066,-0.061,-0.0573,-0.0552,-0.0536,-0.0509,-0.0464,-0.0443,-0.047,-0.04,-0.0398,-0.0357,-0.0338,-0.0327,-0.0271,-0.0383,-0.0383,-0.0382,0,-0.0918,-0.0919,-0.0929,-0.09,-0.0893,-0.0879,-0.0832,-0.0802,-0.0729,-0.0695,-0.0643,-0.0597,-0.0545,-0.0537,-0.0459,-0.0477,-0.0444,-0.0414,-0.0411,-0.0353,-0.0342,-0.0285,-0.0258,-0.0186,-0.0375,-0.0375,-0.0376,0,-0.098,-0.0962,-0.0974,-0.0966,-0.0926,-0.0912,-0.0884,-0.0819,-0.0794,-0.0717,-0.0689,-0.0614,-0.0578,-0.0522,-0.0443,-0.0455,-0.036,-0.0368,-0.0295,-0.0291,-0.026,-0.0254,-0.0154,-0.0325,-0.0325,-0.0326,-0.0326,0,-0.103,-0.1037,-0.1005,-0.1015,-0.1018,-0.0966,-0.0951,-0.0907,-0.0844,-0.0814,-0.0718,-0.0678,-0.0574,-0.0499,-0.0442,-0.0339,-0.0356,-0.0286,-0.0268,-0.0268,-0.0264,-0.0182,-0.0139,-0.0323,-0.0324,-0.0324,-0.0325,0,-0.1107,-0.1084,-0.1099,-0.1067,-0.1054,-0.1062,-0.1012,-0.1001,-0.0922,-0.088,-0.0858,-0.0727,-0.0612,-0.0499,-0.0393,-0.0332,-0.0206,-0.0213,-0.0212,-0.0195,-0.0058,-0.0017,0.0114,0.0062,-0.0121,-0.012,-0.0118,0,-0.1149,-0.1166,-0.1156,-0.1175,-0.1165,-0.1155,-0.115,-0.1065,-0.1044,-0.0912,-0.0901,-0.0757,-0.066,-0.0457,-0.0301,-0.0161,-0.0143,-0.0086,-0.0103,-0.0033,0.0025,0.004,-0.0016,-0.0076,-0.0075,-0.0074,-0.0072,0,-0.1233,-0.1229,-0.1249,-0.1293,-0.13,-0.129,-0.1266,-0.1258,-0.1148,-0.1083,-0.0983,-0.0888,-0.0628,-0.0424,-0.02,-0.0131,-0.0044,-0.0055,0.0016,0.0078,0.0103,0.0054,-0.0134,-0.0061,-0.0062,-0.0063,-0.0064,-0.0064,-0.1298,-0.1342,-0.1378,-0.1423,-0.1434,-0.144,-0.146,-0.1395,-0.1351,-0.1227,-0.1085,-0.0883,-0.0519,-0.0181,-0.0106,0.0123,0.0061,0.015,0.0196,0.0204,0.0159,0.0006,0.0101,0.0101,0.0101,0.01,0.01,0,-0.1395,-0.1446,-0.1505,-0.1557,-0.1615,-0.1569,-0.1556,-0.1562,-0.1529,-0.1278,-0.1145,-0.0622,-0.0349,-0.0037,0.0339,0.0397,0.0312,0.0395,0.0406,0.0327,0.02,0.0206,0.0332,0.0332,0.0332,0.0332,0.0331,0.0331,-0.1448,-0.1551,-0.1593,-0.1727,-0.176,-0.183,-0.1842,-0.179,-0.1635,-0.1267,-0.0867,-0.0562,0.0025,0.0639,0.0805,0.071,0.065,0.0652,0.0598,0.0534,0.0513,0.0493,0.0508,0.0695,0.0695,0.0651,0.0652,0.0652]}],[{"header":{"parameterUnit":"m.s-1","parameterCategory":2,"la1":30.2991,"la2":30.254,"lo1":-89.0895,"lo2":-89.0444,"dy":0.0017,"dx":0.0017,"nx":28,"ny":28,"refTime":"2023-11-15T09:00:00:Z","depth":"2","parameterNumber":2,"parameterNumberName":"U-component_of_CURRENTS"},"data":[0,0,0,0,0,0,0,0,0,0,0,0,0,0,0,0,0,0,0,0,0,0,0,0,0,0,0,0,0,0,0,0,0,0,0,0,0,0,0,0,0,0,0,0,0,0,0,0,0,0,0,0,0,0,0,0,0,0,-0.2393,-0.2393,0,-0.2361,-0.236,-0.236,-0.2329,-0.2329,-0.2329,-0.2329,-0.2291,-0.229,-0.2289,0,0,0,0,0,0,0,0,0,0,0,0,0,-0.239,-0.239,-0.2393,-0.2393,-0.2393,-0.2361,-0.236,-0.236,-0.2329,-0.2329,-0.2329,-0.2328,-0.2291,-0.229,-0.2289,0,0,0,0,0,0,0,0,0,0,0,0,0,-0.2375,-0.239,-0.2393,-0.2376,-0.2374,-0.2361,-0.236,-0.2359,-0.2329,-0.2329,-0.2329,-0.2328,-0.2291,-0.229,-0.2289,-0.2284,0,0,-0.2284,-0.2284,0,0,0,0,0,0,0,0,-0.2376,-0.2375,-0.2379,-0.2377,-0.2375,-0.2351,-0.2345,-0.2335,-0.2329,-0.2343,-0.2329,-0.2328,-0.2313,-0.2309,-0.2299,-0.2282,-0.228,-0.2284,-0.2284,-0.2283,-0.2283,0,0,0,0,0,0,0,-0.2377,-0.2376,-0.2377,-0.2379,-0.2377,-0.2357,-0.2355,-0.2343,-0.2327,-0.2342,-0.234,-0.2342,-0.2311,-0.2301,-0.2298,-0.228,-0.2284,-0.2283,-0.2282,-0.2282,-0.2253,-0.2253,0,0,0,0,0,0,-0.2389,-0.2377,-0.2378,-0.2377,-0.2379,-0.2358,-0.2355,-0.2357,-0.2327,-0.2323,-0.2342,-0.234,-0.2303,-0.23,-0.2297,-0.2301,-0.2283,-0.2282,-0.2281,-0.2253,-0.2253,-0.2253,0,0,0,0,0,0,-0.2389,-0.239,-0.238,-0.2378,-0.2376,-0.2359,-0.236,-0.2356,-0.235,-0.2327,-0.2323,-0.234,-0.2303,-0.2299,-0.2286,-0.2299,-0.2281,-0.228,-0.2253,-0.2253,-0.2253,-0.2301,0,0,0,0,0,0,-0.2389,-0.239,-0.2392,-0.2379,-0.2377,-0.238,-0.2361,-0.2356,-0.2352,-0.235,-0.2325,-0.2321,-0.2303,-0.2289,-0.2285,-0.2296,-0.2279,-0.2253,-0.2253,-0.2253,-0.2299,-0.2303,-0.2306,0,0,0,0,0,-0.2389,-0.2402,-0.2392,-0.2393,-0.2382,-0.238,-0.2377,-0.2361,-0.2352,-0.2353,-0.2332,-0.2322,-0.2287,-0.2288,-0.2283,-0.2295,-0.2253,-0.2253,-0.2253,-0.2298,-0.2302,-0.2306,0,0,0,0,0,0,-0.2404,-0.2399,-0.2389,-0.2399,-0.2392,-0.2377,-0.2378,-0.2367,-0.235,-0.2348,-0.2322,-0.2316,-0.231,-0.2293,-0.2295,-0.2285,-0.2269,-0.2268,-0.2304,-0.2308,-0.2311,-0.2323,-0.2278,0,0,0,0,0,-0.2409,-0.2411,-0.2404,-0.241,-0.241,-0.2393,-0.239,-0.2382,-0.2368,-0.236,-0.2341,-0.2321,-0.2307,-0.23,-0.2284,-0.228,-0.2281,-0.2283,-0.2287,-0.2289,-0.2296,-0.2298,-0.2303,-0.2254,-0.2254,-0.2254,0,0,-0.2415,-0.2413,-0.2413,-0.2412,-0.2404,-0.2414,-0.239,-0.2393,-0.2398,-0.236,-0.2355,-0.2332,-0.2307,-0.2301,-0.2297,-0.229,-0.2307,-0.229,-0.2292,-0.2297,-0.2299,-0.2304,-0.2308,-0.2254,-0.2254,-0.2254,0,0,-0.2437,-0.2429,-0.2442,-0.2441,-0.2439,-0.243,-0.2435,-0.2423,-0.2414,-0.2407,-0.2381,-0.2364,-0.2341,-0.2325,-0.2315,-0.2325,-0.2323,-0.232,-0.2348,-0.2351,-0.2355,-0.2359,-0.2387,-0.2392,-0.2323,-0.2323,-0.2323,0,-0.2447,-0.2459,-0.2445,-0.2461,-0.2464,-0.2443,-0.2461,-0.2451,-0.2434,-0.2431,-0.2413,-0.2378,-0.2354,-0.2351,-0.2349,-0.2335,-0.2343,-0.2339,-0.2357,-0.236,-0.2364,-0.239,-0.2396,-0.2325,-0.2325,-0.2325,-0.2324,0,-0.2477,-0.2489,-0.2499,-0.2508,-0.251,-0.2521,-0.2513,-0.251,-0.2494,-0.2482,-0.247,-0.2431,-0.2411,-0.24,-0.2376,-0.2385,-0.2388,-0.2362,-0.2352,-0.2372,-0.2398,-0.2404,-0.2328,-0.2328,-0.2327,-0.2326,0,0,-0.2488,-0.2517,-0.2517,-0.2528,-0.2536,-0.2539,-0.2554,-0.2556,-0.2565,-0.2538,-0.2545,-0.2506,-0.248,-0.2466,-0.2434,-0.2429,-0.2457,-0.2407,-0.2406,-0.2444,-0.2487,-0.2569,-0.2583,-0.2436,-0.2437,-0.2437,-0.2504,0,-0.2513,-0.2552,-0.2559,-0.2587,-0.2603,-0.2598,-0.2611,-0.2611,-0.26,-0.2601,-0.2565,-0.2552,-0.2508,-0.2494,-0.2486,-0.2456,-0.247,-0.2443,-0.2453,-0.2454,-0.2533,-0.2591,-0.225,-0.2288,-0.2509,-0.251,-0.2511,0,-0.2529,-0.2554,-0.2594,-0.2623,-0.263,-0.2643,-0.2656,-0.2666,-0.2667,-0.266,-0.2647,-0.2619,-0.2603,-0.256,-0.2544,-0.253,-0.2519,-0.25,-0.2502,-0.2566,-0.2547,-0.2298,-0.2289,-0.2519,-0.2519,-0.2518,-0.2518,0,-0.2522,-0.2569,-0.26,-0.261,-0.2646,-0.2658,-0.2669,-0.2678,-0.2688,-0.2693,-0.2706,-0.268,-0.2671,-0.2642,-0.2608,-0.2575,-0.2609,-0.2557,-0.2631,-0.2637,-0.2343,-0.2324,-0.2569,-0.2569,-0.2568,-0.2568,-0.2568,0,-0.2534,-0.2551,-0.2598,-0.2612,-0.2637,-0.2661,-0.2685,-0.2692,-0.2717,-0.2749,-0.2728,-0.2755,-0.269,-0.2698,-0.2653,-0.2682,-0.265,-0.2663,-0.2667,-0.2356,-0.2338,-0.2523,-0.2517,-0.2571,-0.257,-0.257,-0.2569,0,-0.2503,-0.2546,-0.2573,-0.262,-0.2633,-0.264,-0.2682,-0.2711,-0.2735,-0.2781,-0.2786,-0.2811,-0.2844,-0.281,-0.2784,-0.2762,-0.2758,-0.2778,-0.2447,-0.2414,-0.2771,-0.2766,-0.2865,-0.2869,-0.2872,-0.2874,-0.2876,0,-0.2486,-0.2501,-0.2554,-0.2582,-0.26,-0.2627,-0.2661,-0.2697,-0.2741,-0.2826,-0.2861,-0.2915,-0.2964,-0.2988,-0.2852,-0.2816,-0.2887,-0.2596,-0.2486,-0.2812,-0.2805,-0.2795,-0.2786,-0.2096,-0.2091,-0.2088,-0.2085,0,-0.2446,-0.2467,-0.2503,-0.2548,-0.2589,-0.2627,-0.2682,-0.2725,-0.2803,-0.2866,-0.2992,-0.3041,-0.3009,-0.2814,-0.2768,-0.2695,-0.2571,-0.2537,-0.2909,-0.2128,-0.2107,-0.2095,-0.2106,-0.2053,-0.2056,-0.2058,-0.206,-0.2061,-0.2406,-0.2416,-0.2472,-0.251,-0.2569,-0.2629,-0.2651,-0.2686,-0.2757,-0.2769,-0.2942,-0.2886,-0.2766,-0.2536,-0.2423,-0.2303,-0.2479,-0.2353,-0.2353,-0.2359,-0.2312,-0.2304,-0.2277,-0.2281,-0.2285,-0.2288,-0.2291,0,-0.2294,-0.2381,-0.2431,-0.2493,-0.2483,-0.2563,-0.2669,-0.2579,-0.2592,-0.2625,-0.2644,-0.2319,-0.2207,-0.2148,-0.1865,-0.1865,-0.1706,-0.1852,-0.1578,-0.1612,-0.1641,-0.1548,-0.1315,-0.1313,-0.1311,-0.131,0,0,-0.2256,-0.2259,-0.2293,-0.2325,-0.2407,-0.2322,-0.2358,-0.2248,-0.2192,-0.2051,-0.2005,-0.2098,-0.2123,-0.1715,-0.1588,-0.1437,-0.1524,-0.1375,-0.2141,-0.1853,-0.1881,-0.1901,-0.1796,0,0,0,0,0]},{"header":{"parameterUnit":"m.s-1","parameterCategory":2,"la1":30.2991,"la2":30.254,"lo1":-89.0895,"lo2":-89.0444,"dy":0.0017,"dx":0.0017,"nx":28,"ny":28,"refTime":"2023-11-15T09:00:00:Z","depth":"2","parameterNumber":3,"parameterNumberName":"V-component_of_CURRENTS"},"data":[0,0,0,0,0,0,0,0,0,0,0,0,0,0,0,0,0,0,0,0,0,0,0,0,0,0,0,0,0,0,0,0,0,0,0,0,0,0,0,0,0,0,0,0,0,0,0,0,0,0,0,0,0,0,0,0,0,0,-0.0651,-0.0651,0,-0.0582,-0.0581,-0.058,-0.0541,-0.0541,-0.0541,-0.054,-0.0466,-0.0464,-0.0462,0,0,0,0,0,0,0,0,0,0,0,0,0,-0.0702,-0.0702,-0.0651,-0.0651,-0.065,-0.0582,-0.0581,-0.058,-0.0541,-0.0541,-0.0541,-0.054,-0.0467,-0.0465,-0.0462,0,0,0,0,0,0,0,0,0,0,0,0,0,-0.0661,-0.0702,-0.0651,-0.0623,-0.0619,-0.0582,-0.0581,-0.058,-0.0541,-0.0541,-0.0541,-0.054,-0.0468,-0.0465,-0.0462,-0.0446,0,0,-0.0453,-0.0452,0,0,0,0,0,0,0,0,-0.0663,-0.0659,-0.0628,-0.0625,-0.0621,-0.0571,-0.0572,-0.0535,-0.0541,-0.057,-0.054,-0.054,-0.0501,-0.0496,-0.0482,-0.0443,-0.044,-0.0453,-0.0451,-0.045,-0.0449,0,0,0,0,0,0,0,-0.0666,-0.0661,-0.0623,-0.0627,-0.0623,-0.0597,-0.0591,-0.0564,-0.0536,-0.0567,-0.0564,-0.0558,-0.0499,-0.0485,-0.048,-0.0438,-0.0453,-0.045,-0.0449,-0.0448,-0.0386,-0.0386,0,0,0,0,0,0,-0.0679,-0.0664,-0.0625,-0.0621,-0.0643,-0.0596,-0.059,-0.0586,-0.0536,-0.0529,-0.0558,-0.0556,-0.049,-0.0483,-0.0477,-0.0455,-0.045,-0.0447,-0.0446,-0.0386,-0.0386,-0.0386,0,0,0,0,0,0,-0.068,-0.0676,-0.0628,-0.0642,-0.0634,-0.0596,-0.0592,-0.0585,-0.0571,-0.053,-0.0522,-0.0552,-0.0489,-0.0481,-0.0453,-0.0452,-0.0446,-0.0443,-0.0386,-0.0386,-0.0386,-0.0411,0,0,0,0,0,0,-0.0682,-0.0677,-0.0679,-0.0643,-0.0634,-0.061,-0.0592,-0.0584,-0.0567,-0.0564,-0.0522,-0.0514,-0.0489,-0.0458,-0.045,-0.0448,-0.0441,-0.0385,-0.0386,-0.0386,-0.041,-0.0412,-0.0414,0,0,0,0,0,-0.0684,-0.0689,-0.068,-0.0675,-0.0638,-0.061,-0.0603,-0.0575,-0.0567,-0.0562,-0.0533,-0.0516,-0.0454,-0.0455,-0.0447,-0.0443,-0.0385,-0.0386,-0.0386,-0.041,-0.0412,-0.0414,0,0,0,0,0,0,-0.0712,-0.0684,-0.0674,-0.067,-0.0644,-0.0604,-0.0598,-0.0579,-0.0551,-0.055,-0.0512,-0.0503,-0.0479,-0.0459,-0.0462,-0.0427,-0.0419,-0.0417,-0.044,-0.0442,-0.0443,-0.0447,-0.0439,0,0,0,0,0,-0.072,-0.0717,-0.0684,-0.0681,-0.0671,-0.0636,-0.0622,-0.0603,-0.0573,-0.0561,-0.0529,-0.05,-0.0473,-0.0457,-0.0431,-0.0409,-0.039,-0.0403,-0.0405,-0.0406,-0.0404,-0.038,-0.038,-0.0386,-0.0386,-0.0386,0,0,-0.0731,-0.0715,-0.0713,-0.0687,-0.0666,-0.0652,-0.0627,-0.061,-0.0594,-0.0557,-0.053,-0.0505,-0.0469,-0.0445,-0.0433,-0.0427,-0.0395,-0.0407,-0.0408,-0.0405,-0.0381,-0.038,-0.0379,-0.0387,-0.0387,-0.0387,0,0,-0.075,-0.0736,-0.074,-0.072,-0.0693,-0.0668,-0.0666,-0.0627,-0.0607,-0.0578,-0.055,-0.0524,-0.0481,-0.0453,-0.0435,-0.0431,-0.0407,-0.0427,-0.0434,-0.0412,-0.0411,-0.041,-0.0386,-0.0383,-0.0426,-0.0426,-0.0426,0,-0.0765,-0.0762,-0.0736,-0.0731,-0.0718,-0.0679,-0.0675,-0.0646,-0.0602,-0.0583,-0.0576,-0.0511,-0.0484,-0.0448,-0.0447,-0.0435,-0.0418,-0.0429,-0.0414,-0.0413,-0.0411,-0.0387,-0.0383,-0.0427,-0.0427,-0.0427,-0.0427,0,-0.0782,-0.0779,-0.0779,-0.076,-0.0741,-0.0732,-0.0691,-0.0668,-0.0641,-0.0607,-0.0568,-0.0529,-0.049,-0.048,-0.046,-0.0436,-0.0427,-0.0421,-0.0409,-0.0412,-0.0387,-0.0382,-0.0429,-0.0429,-0.0428,-0.0428,0,0,-0.0824,-0.0798,-0.0799,-0.0796,-0.0757,-0.0745,-0.0715,-0.0676,-0.0655,-0.0612,-0.0582,-0.0536,-0.0512,-0.049,-0.0462,-0.0441,-0.0419,-0.0429,-0.0427,-0.0407,-0.0367,-0.032,-0.0311,-0.0412,-0.0411,-0.0411,-0.0354,0,-0.0848,-0.0856,-0.0826,-0.0823,-0.0825,-0.0774,-0.075,-0.0707,-0.0664,-0.0623,-0.0573,-0.0537,-0.0516,-0.05,-0.0474,-0.0429,-0.0408,-0.0434,-0.0366,-0.0364,-0.0323,-0.0304,-0.0244,-0.0185,-0.0349,-0.0348,-0.0348,0,-0.088,-0.0881,-0.089,-0.0861,-0.0855,-0.084,-0.0794,-0.0764,-0.0692,-0.0658,-0.0607,-0.0561,-0.0509,-0.0502,-0.0424,-0.0442,-0.0409,-0.0379,-0.0376,-0.0319,-0.0308,-0.0208,-0.017,-0.034,-0.034,-0.0341,-0.0341,0,-0.0943,-0.0925,-0.0936,-0.0928,-0.0887,-0.0874,-0.0846,-0.0782,-0.0757,-0.0681,-0.0654,-0.0578,-0.0542,-0.0487,-0.0409,-0.042,-0.0326,-0.0334,-0.0261,-0.0257,-0.0185,-0.0176,-0.0291,-0.0291,-0.0291,-0.0291,-0.0291,0,-0.0994,-0.1001,-0.0968,-0.0978,-0.0981,-0.0929,-0.0914,-0.087,-0.0807,-0.0778,-0.0683,-0.0643,-0.054,-0.0464,-0.0407,-0.0305,-0.0322,-0.0252,-0.0235,-0.0192,-0.0185,-0.0304,-0.0306,-0.0289,-0.029,-0.029,-0.029,0,-0.1072,-0.1048,-0.1063,-0.103,-0.1018,-0.1026,-0.0975,-0.0965,-0.0886,-0.0845,-0.0823,-0.0693,-0.0578,-0.0465,-0.036,-0.0298,-0.0213,-0.018,-0.0131,-0.0109,-0.0164,-0.0169,-0.0094,-0.0091,-0.0089,-0.0088,-0.0087,0,-0.1114,-0.1131,-0.112,-0.1139,-0.1129,-0.1119,-0.1114,-0.1029,-0.1008,-0.0877,-0.0867,-0.0724,-0.0621,-0.0418,-0.0242,-0.0096,-0.016,-0.0004,-0.0015,-0.0151,-0.0142,-0.0149,-0.0156,0.0069,0.0072,0.0074,0.0075,0,-0.12,-0.1196,-0.1215,-0.1258,-0.1265,-0.1255,-0.123,-0.1222,-0.1112,-0.104,-0.0941,-0.084,-0.0565,-0.0327,-0.0096,-0.0024,-0.0016,0.0041,-0.0098,0.0007,0.0007,0.0014,0.0001,0.0093,0.0092,0.009,0.0089,0.0089,-0.1266,-0.131,-0.1345,-0.1389,-0.1399,-0.1404,-0.1424,-0.1326,-0.127,-0.1125,-0.1012,-0.0803,-0.0533,-0.0158,0.0028,0.0193,0.0139,0.0153,0.0145,0.0136,0.0142,0.0144,0.0258,0.0257,0.0257,0.0256,0.0255,0,-0.1326,-0.1414,-0.1472,-0.1523,-0.1541,-0.1534,-0.1519,-0.1465,-0.1379,-0.1175,-0.1018,-0.068,-0.0352,-0.0107,0.0221,0.0376,0.0362,0.0359,0.033,0.0312,0.0296,0.0308,0.047,0.0471,0.0472,0.0472,0,0,-0.1369,-0.1454,-0.1494,-0.1611,-0.1677,-0.1679,-0.1688,-0.1565,-0.1405,-0.1173,-0.0975,-0.071,-0.0372,-0.0106,0.0145,0.0314,0.0238,0.0312,0.0129,0.0048,0.0029,0.0179,0.0178,0,0,0,0,0]}],[{"header":{"parameterUnit":"m.s-1","parameterCategory":2,"la1":30.2991,"la2":30.254,"lo1":-89.0895,"lo2":-89.0444,"dy":0.0017,"dx":0.0017,"nx":28,"ny":28,"refTime":"2023-11-15T09:00:00:Z","depth":"4","parameterNumber":2,"parameterNumberName":"U-component_of_CURRENTS"},"data":[0,0,0,0,0,0,0,0,0,0,0,0,0,0,0,0,0,0,0,0,0,0,0,0,0,0,0,0,0,0,0,0,0,0,0,0,0,0,0,0,0,0,0,0,0,0,0,0,0,0,0,0,0,0,0,0,0,0,-0.1155,-0.1155,0,-0.1185,-0.1185,-0.1186,-0.1219,-0.1219,-0.122,-0.122,-0.1261,-0.1262,-0.1262,0,0,0,0,0,0,0,0,0,0,0,0,0,-0.1113,-0.1114,-0.1155,-0.1155,-0.1156,-0.1185,-0.1185,-0.1186,-0.1219,-0.1219,-0.122,-0.1221,-0.1261,-0.1262,-0.1262,0,0,0,0,0,0,0,0,0,0,0,0,0,-0.1135,-0.1114,-0.1155,-0.1177,-0.1179,-0.1185,-0.1186,-0.1186,-0.1218,-0.1219,-0.122,-0.1221,-0.1261,-0.1261,-0.1262,-0.1248,0,0,-0.1265,-0.1265,0,0,0,0,0,0,0,0,-0.1133,-0.1136,-0.1173,-0.1175,-0.1178,-0.1201,-0.1186,-0.1208,-0.1218,-0.1202,-0.122,-0.1222,-0.1242,-0.1244,-0.1246,-0.125,-0.1252,-0.1265,-0.1265,-0.1265,-0.1266,0,0,0,0,0,0,0,-0.1132,-0.1135,-0.1165,-0.1174,-0.1177,-0.1181,-0.1185,-0.119,-0.1215,-0.1203,-0.1206,-0.1212,-0.1244,-0.1245,-0.1247,-0.1253,-0.1265,-0.1265,-0.1266,-0.1266,-0.1308,-0.1309,0,0,0,0,0,0,-0.1131,-0.1133,-0.1164,-0.1166,-0.1159,-0.1182,-0.1186,-0.1191,-0.1215,-0.122,-0.1211,-0.1213,-0.1243,-0.1246,-0.1249,-0.1294,-0.1265,-0.1266,-0.1267,-0.1308,-0.1308,-0.1309,0,0,0,0,0,0,-0.113,-0.1133,-0.1163,-0.1152,-0.1156,-0.1182,-0.1187,-0.1191,-0.1215,-0.1221,-0.1226,-0.1233,-0.1244,-0.1247,-0.1271,-0.1294,-0.1266,-0.1267,-0.1307,-0.1308,-0.1309,-0.1347,0,0,0,0,0,0,-0.1128,-0.1133,-0.1143,-0.1152,-0.1157,-0.1181,-0.1186,-0.1191,-0.1217,-0.122,-0.1241,-0.1245,-0.1245,-0.127,-0.1272,-0.1294,-0.1268,-0.1306,-0.1307,-0.1308,-0.1345,-0.1349,-0.1352,0,0,0,0,0,-0.1127,-0.1136,-0.1144,-0.1148,-0.1168,-0.1182,-0.1185,-0.1205,-0.1217,-0.1229,-0.1245,-0.1245,-0.128,-0.1271,-0.1273,-0.1296,-0.1305,-0.1307,-0.1308,-0.1343,-0.1348,-0.1352,0,0,0,0,0,0,-0.1126,-0.114,-0.1149,-0.1164,-0.1179,-0.1188,-0.1203,-0.1215,-0.1236,-0.1246,-0.1252,-0.1256,-0.1285,-0.1283,-0.1274,-0.1312,-0.1293,-0.1295,-0.1319,-0.1324,-0.1328,-0.1329,-0.1268,0,0,0,0,0,-0.1129,-0.1141,-0.1154,-0.1169,-0.1177,-0.1193,-0.1205,-0.1219,-0.1234,-0.1246,-0.1261,-0.1276,-0.1288,-0.1301,-0.1308,-0.1328,-0.1326,-0.1344,-0.1348,-0.1352,-0.1354,-0.1365,-0.1371,-0.1314,-0.1314,-0.1314,0,0,-0.1135,-0.1143,-0.1152,-0.117,-0.1183,-0.1201,-0.1203,-0.1226,-0.1249,-0.1245,-0.1285,-0.1291,-0.1295,-0.1319,-0.1332,-0.1325,-0.1369,-0.1354,-0.1357,-0.1357,-0.1367,-0.1373,-0.1378,-0.1315,-0.1315,-0.1315,0,0,-0.1145,-0.1158,-0.1171,-0.1185,-0.1208,-0.1218,-0.123,-0.1252,-0.1271,-0.13,-0.1305,-0.1324,-0.1346,-0.1353,-0.1358,-0.1387,-0.1388,-0.1396,-0.1422,-0.1433,-0.1437,-0.1441,-0.1454,-0.1459,-0.14,-0.1401,-0.1401,0,-0.1155,-0.1171,-0.1178,-0.1194,-0.1214,-0.1229,-0.1254,-0.1269,-0.13,-0.1318,-0.132,-0.1358,-0.136,-0.1388,-0.1399,-0.1397,-0.1405,-0.1404,-0.1438,-0.1442,-0.1446,-0.1458,-0.1463,-0.1403,-0.1402,-0.1402,-0.1402,0,-0.1168,-0.1192,-0.1201,-0.1229,-0.1249,-0.1272,-0.1295,-0.1322,-0.1347,-0.1362,-0.14,-0.1402,-0.1425,-0.1429,-0.1423,-0.1455,-0.1453,-0.144,-0.1426,-0.1454,-0.1465,-0.1469,-0.1405,-0.1405,-0.1404,-0.1404,0,0,-0.1162,-0.1205,-0.1211,-0.1236,-0.1272,-0.129,-0.133,-0.1368,-0.1403,-0.1424,-0.1464,-0.1476,-0.148,-0.1485,-0.1483,-0.1491,-0.1521,-0.1481,-0.1481,-0.1495,-0.1554,-0.1488,-0.1486,-0.1518,-0.1519,-0.152,-0.1555,0,-0.1176,-0.1213,-0.1235,-0.1283,-0.1306,-0.134,-0.1378,-0.1414,-0.1445,-0.1486,-0.1491,-0.1523,-0.15,-0.1518,-0.1522,-0.1521,-0.1534,-0.1513,-0.1525,-0.1525,-0.1463,-0.1489,-0.1522,-0.1558,-0.1559,-0.156,-0.156,0,-0.1174,-0.1205,-0.1252,-0.1317,-0.1333,-0.1367,-0.1435,-0.1471,-0.1522,-0.1547,-0.1574,-0.1581,-0.1599,-0.1574,-0.1585,-0.1577,-0.1572,-0.1565,-0.1566,-0.1492,-0.1466,-0.1523,-0.1568,-0.1568,-0.1567,-0.1566,-0.1566,0,-0.1147,-0.1215,-0.1256,-0.1277,-0.135,-0.1389,-0.1433,-0.1491,-0.1532,-0.1587,-0.1623,-0.1637,-0.1659,-0.1648,-0.1635,-0.1617,-0.1647,-0.1618,-0.1555,-0.1551,-0.1584,-0.1579,-0.163,-0.163,-0.163,-0.163,-0.163,0,-0.1133,-0.1168,-0.1253,-0.1272,-0.1337,-0.139,-0.1459,-0.1504,-0.1574,-0.1624,-0.1652,-0.1683,-0.1681,-0.1695,-0.1665,-0.1626,-0.1672,-0.1564,-0.1555,-0.16,-0.1596,-0.1587,-0.1582,-0.1631,-0.1631,-0.1631,-0.1631,0,-0.1076,-0.1136,-0.1188,-0.1282,-0.1321,-0.1361,-0.1471,-0.1516,-0.1591,-0.1658,-0.168,-0.1731,-0.1744,-0.1741,-0.1734,-0.1666,-0.1634,-0.1614,-0.1681,-0.1674,-0.1523,-0.1519,-0.1532,-0.153,-0.1529,-0.1527,-0.1526,0,-0.1044,-0.1066,-0.1176,-0.1222,-0.1269,-0.135,-0.1408,-0.1505,-0.1554,-0.1674,-0.1696,-0.1754,-0.1773,-0.1707,-0.1704,-0.1655,-0.1631,-0.1604,-0.1537,-0.1523,-0.1513,-0.1512,-0.1511,-0.1523,-0.1523,-0.1522,-0.1522,0,-0.0983,-0.1029,-0.1074,-0.1162,-0.1237,-0.1315,-0.1406,-0.1439,-0.1556,-0.1641,-0.1676,-0.1673,-0.1698,-0.1662,-0.1649,-0.1605,-0.1606,-0.1584,-0.1587,-0.1524,-0.1512,-0.1503,-0.1504,-0.1516,-0.1516,-0.1517,-0.1517,0,-0.0936,-0.0948,-0.1018,-0.1084,-0.1184,-0.125,-0.1314,-0.1385,-0.1447,-0.1584,-0.1593,-0.1647,-0.1703,-0.1639,-0.162,-0.158,-0.1537,-0.1462,-0.147,-0.1477,-0.1436,-0.1411,-0.1381,0,0,0,0,0,-0.088,-0.0884,-0.094,-0.1015,-0.1112,-0.1161,-0.1299,-0.1367,-0.1489,-0.1488,-0.154,-0.1556,-0.1535,-0.1549,-0.1489,-0.1573,-0.1533,-0.1495,-0.145,-0.1482,-0.1489,-0.1442,0,0,0,0,0,0,-0.0846,-0.0883,-0.0899,-0.0942,-0.0975,-0.1071,-0.1151,-0.1244,-0.1254,-0.1376,-0.137,-0.1449,-0.1443,-0.1536,-0.1446,-0.1451,-0.1391,-0.1528,-0.1524,-0.1478,-0.1484,-0.149,-0.1445,0,0,0,0,0]},{"header":{"parameterUnit":"m.s-1","parameterCategory":2,"la1":30.2991,"la2":30.254,"lo1":-89.0895,"lo2":-89.0444,"dy":0.0017,"dx":0.0017,"nx":28,"ny":28,"refTime":"2023-11-15T09:00:00:Z","depth":"4","parameterNumber":3,"parameterNumberName":"V-component_of_CURRENTS"},"data":[0,0,0,0,0,0,0,0,0,0,0,0,0,0,0,0,0,0,0,0,0,0,0,0,0,0,0,0,0,0,0,0,0,0,0,0,0,0,0,0,0,0,0,0,0,0,0,0,0,0,0,0,0,0,0,0,0,0,-0.0061,-0.0061,0,-0.0039,-0.0039,-0.0039,-0.0031,-0.0031,-0.0031,-0.0031,-0.0,0.0001,0.0002,0,0,0,0,0,0,0,0,0,0,0,0,0,-0.0068,-0.0068,-0.0061,-0.0061,-0.0061,-0.0039,-0.0039,-0.0038,-0.0031,-0.0031,-0.0031,-0.0032,-0.0,0.0001,0.0002,0,0,0,0,0,0,0,0,0,0,0,0,0,-0.0056,-0.0068,-0.0061,-0.0055,-0.0054,-0.0039,-0.0039,-0.0038,-0.0031,-0.0031,-0.0031,-0.0032,-0.0001,0.0001,0.0002,0.0016,0,0,0.0007,0.0007,0,0,0,0,0,0,0,0,-0.0057,-0.0056,-0.0056,-0.0055,-0.0054,-0.0039,-0.003,-0.002,-0.0031,-0.0039,-0.0031,-0.0032,-0.0012,-0.001,-0.0004,0.0017,0.0019,0.0007,0.0008,0.0008,0.0009,0,0,0,0,0,0,0,-0.0058,-0.0057,-0.0051,-0.0056,-0.0055,-0.0044,-0.0042,-0.0028,-0.0024,-0.0038,-0.0038,-0.0037,-0.0012,-0.0006,-0.0004,0.0019,0.0007,0.0008,0.0009,0.001,0.0037,0.0037,0,0,0,0,0,0,-0.0064,-0.0058,-0.0052,-0.0051,-0.0057,-0.0043,-0.0042,-0.0043,-0.0024,-0.0022,-0.0036,-0.0036,-0.0008,-0.0005,-0.0002,0.0006,0.0008,0.001,0.0011,0.0038,0.0037,0.0037,0,0,0,0,0,0,-0.0064,-0.0063,-0.0053,-0.0054,-0.0052,-0.0043,-0.0044,-0.0042,-0.004,-0.0023,-0.002,-0.0036,-0.0008,-0.0005,0.0007,0.0007,0.001,0.0012,0.0038,0.0038,0.0037,0.0028,0,0,0,0,0,0,-0.0064,-0.0064,-0.0066,-0.0055,-0.0053,-0.0047,-0.0044,-0.0042,-0.0039,-0.0039,-0.0022,-0.0019,-0.0008,0.0004,0.0008,0.0009,0.0013,0.0038,0.0038,0.0037,0.0028,0.0027,0.0026,0,0,0,0,0,-0.0064,-0.0066,-0.0066,-0.0066,-0.0057,-0.0047,-0.0045,-0.0038,-0.0039,-0.0037,-0.0028,-0.002,0.0005,0.0006,0.001,0.0012,0.0038,0.0038,0.0037,0.0029,0.0027,0.0026,0,0,0,0,0,0,-0.0069,-0.0065,-0.0065,-0.0066,-0.0059,-0.0046,-0.0045,-0.004,-0.0031,-0.0033,-0.0018,-0.0014,-0.0005,0.0004,0.0004,0.0018,0.0022,0.0022,0.0013,0.0012,0.0011,0.0009,0.0014,0,0,0,0,0,-0.0072,-0.0074,-0.0066,-0.0067,-0.0065,-0.0056,-0.0052,-0.0048,-0.0039,-0.0035,-0.0024,-0.0013,-0.0002,0.0005,0.0015,0.0027,0.004,0.0029,0.0028,0.0027,0.0027,0.0044,0.0045,0.0036,0.0036,0.0036,0,0,-0.0075,-0.0073,-0.0075,-0.0069,-0.0064,-0.0062,-0.0054,-0.005,-0.0048,-0.0032,-0.0026,-0.0015,-0.0001,0.0009,0.0014,0.0017,0.0037,0.0027,0.0026,0.0026,0.0044,0.0045,0.0046,0.0036,0.0036,0.0036,0,0,-0.0082,-0.008,-0.0085,-0.0081,-0.0076,-0.0068,-0.0069,-0.0059,-0.0053,-0.0044,-0.0035,-0.0023,-0.0007,0.0006,0.0014,0.0015,0.003,0.0014,0.0011,0.0028,0.0029,0.003,0.0051,0.0054,0.0015,0.0015,0.0015,0,-0.0087,-0.0095,-0.0084,-0.0086,-0.0087,-0.0073,-0.0079,-0.0067,-0.0054,-0.0048,-0.0046,-0.0021,-0.0008,0.0008,0.0007,0.0013,0.0025,0.0015,0.0027,0.0028,0.0029,0.0051,0.0054,0.0015,0.0015,0.0015,0.0015,0,-0.0099,-0.0105,-0.0107,-0.0108,-0.0103,-0.0106,-0.0091,-0.0085,-0.0078,-0.0065,-0.0049,-0.0028,-0.0015,-0.0008,0.0001,0.0015,0.0022,0.0023,0.0031,0.003,0.0053,0.0056,0.0014,0.0014,0.0015,0.0015,0,0,-0.0116,-0.0117,-0.012,-0.013,-0.0118,-0.0121,-0.011,-0.01,-0.0099,-0.0074,-0.0068,-0.0041,-0.0029,-0.0019,-0.0004,0.0014,0.0036,0.002,0.0022,0.0043,0.0076,0.0094,0.01,0.0037,0.0038,0.0038,0.009,0,-0.0133,-0.0152,-0.0141,-0.0159,-0.0171,-0.0152,-0.0146,-0.0131,-0.0114,-0.01,-0.0065,-0.0054,-0.0033,-0.0031,-0.0006,0.0022,0.0044,0.0022,0.0072,0.0074,0.0091,0.0104,0.004,0.0093,0.0094,0.0094,0.0095,0,-0.0153,-0.0166,-0.0189,-0.0199,-0.0202,-0.0205,-0.0202,-0.0194,-0.0158,-0.0144,-0.0113,-0.0085,-0.0048,-0.0038,0.0026,0.001,0.004,0.0067,0.0069,0.0092,0.0098,0.0093,0.0102,0.0101,0.0101,0.01,0.01,0,-0.0187,-0.0202,-0.0226,-0.023,-0.0232,-0.0238,-0.0238,-0.0212,-0.0214,-0.0174,-0.0168,-0.011,-0.0093,-0.0038,0.0028,0.0022,0.0098,0.0096,0.0146,0.0147,0.0119,0.0118,0.0137,0.0137,0.0137,0.0137,0.0137,0,-0.0214,-0.0236,-0.0249,-0.0265,-0.0299,-0.0281,-0.0303,-0.0288,-0.0268,-0.0268,-0.02,-0.0184,-0.0095,-0.0036,0.0024,0.0105,0.0098,0.0151,0.0163,0.0115,0.0112,0.0123,0.012,0.0139,0.0138,0.0138,0.0138,0,-0.0246,-0.0252,-0.0288,-0.0306,-0.0318,-0.0344,-0.0362,-0.0376,-0.0342,-0.0338,-0.0329,-0.0245,-0.016,-0.006,0.0033,0.0093,0.0169,0.0196,0.0146,0.0153,0.0209,0.0205,0.0257,0.0258,0.0259,0.026,0.026,0,-0.0261,-0.0283,-0.0329,-0.0366,-0.038,-0.0415,-0.0443,-0.0424,-0.0431,-0.0375,-0.0376,-0.0287,-0.022,-0.0068,0.004,0.0177,0.019,0.0237,0.0219,0.0215,0.0222,0.0217,0.0212,0.0262,0.0262,0.0262,0.0263,0,-0.0294,-0.0313,-0.0347,-0.0426,-0.0471,-0.0517,-0.0545,-0.0555,-0.052,-0.0484,-0.0417,-0.0313,-0.0208,-0.0074,0.0042,0.0135,0.0214,0.0246,0.0245,0.0229,0.0222,0.0226,0.022,0.0266,0.0265,0.0265,0.0265,0,-0.032,-0.0359,-0.0415,-0.0484,-0.0552,-0.0607,-0.0611,-0.0606,-0.0599,-0.0514,-0.0493,-0.0356,-0.0266,-0.0096,0.0007,0.0113,0.0133,0.0159,0.0163,0.016,0.0123,0.0099,0.012,0,0,0,0,0,-0.0343,-0.0399,-0.0472,-0.0552,-0.0622,-0.0658,-0.0677,-0.0664,-0.0618,-0.0582,-0.0533,-0.0428,-0.024,-0.0152,-0.0048,0.0011,0.0141,0.0138,0.0169,0.0284,0.028,0.0254,0,0,0,0,0,0,-0.0364,-0.0435,-0.048,-0.0598,-0.0664,-0.0736,-0.0752,-0.0718,-0.0681,-0.0611,-0.0516,-0.0412,-0.024,-0.0316,-0.0055,-0.0016,0.0018,0.0241,0.0244,0.0286,0.0282,0.0279,0.0252,0,0,0,0,0]}]]